User: anonymous   Login
Location: Unspecified
(0.0000°N, 0.0000°E)
Time: 09:24:19
(UTC+00:00)
Language:

DMSP B5D1-2 - Orbit

View from above orbital plane
View from above orbital plane
View from above satellite
View from above satellite

Ground track
Ground track

The orbit data is extracted from the following two-line orbital elements,

1 10033U 77044A   18007.25223456 0.00000070  00000-0  27354-4 0    09
2 10033  99.1432 235.4307 0040312 154.8164 205.1835 14.29199406    09
Epoch (UTC): 07 January 2018 06:03:13
Eccentricity: 0.0040312
inclination: 99.1432°
perigee height: 765 km
apogee height: 823 km
right ascension of ascending node: 235.4307°
argument of perigee: 154.8164°
revolutions per day: 14.29199406
mean anomaly at epoch: 205.1835°
orbit number at epoch: 0

The dashed part of the orbit path shows where the satellite is in the earth's shadow,  

DLR